GW4109 Weather Reports


time (UTC)temp
C
wind
direction
speed
KPH
gust
KPH
rain 1hr
cm
rain 24hr
cm
rain mn
cm
humidity
%
barometer
mb
20260503194806 33 258 19.3 30.6 0.00 0.00 0.00 17 1010.8
20260503194302 32 244 17.7 29.0 0.00 0.00 0.00 18 1011.1
20260503193758 33 254 24.1 35.4 0.00 0.00 0.00 18 1010.9
20260503193254 32 232 20.9 33.8 0.00 0.00 0.00 19 1011.0
20260503192750 33 256 17.7 29.0 0.00 0.00 0.00 18 1010.9
20260503192245 32 263 9.7 24.1 0.00 0.00 0.00 18 1011.1
20260503191743 33 231 16.1 29.0 0.00 0.00 0.00 17 1011.2
20260503191240 33 265 17.7 27.4 0.00 0.00 0.00 18 1011.2
20260503190736 32 234 20.9 30.6 0.00 0.00 0.00 18 1011.2
20260503190233 32 260 9.7 16.1 0.00 0.00 0.00 18 1011.4
20260503185731 32 259 14.5 24.1 0.00 0.00 0.00 18 1011.5
20260503185226 33 257 20.9 30.6 0.00 0.00 0.00 18 1011.6
20260503184721 32 244 20.9 33.8 0.00 0.00 0.00 18 1011.7
20260503184217 33 190 6.4 24.1 0.00 0.00 0.00 18 1011.7
20260503183714 32 236 20.9 29.0 0.00 0.00 0.00 18 1011.8
20260503183211 32 245 14.5 30.6 0.00 0.00 0.00 18 1011.7
20260503182709 32 246 14.5 27.4 0.00 0.00 0.00 17 1012.0
20260503182208 32 240 16.1 35.4 0.00 0.00 0.00 18 1012.0
20260503181703 32 248 14.5 35.4 0.00 0.00 0.00 17 1012.1
20260503181200 32 245 19.3 24.1 0.00 0.00 0.00 17 1012.1
20260503180657 32 252 12.9 20.9 0.00 0.00 0.00 18 1012.1
20260503180156 32 235 16.1 24.1 0.00 0.00 0.00 18 1012.4
20260503175652 32 243 8.0 8.0 0.00 0.00 0.00 16 1012.3
20260503175150 32 236 3.2 12.9 0.00 0.00 0.00 17 1012.3
20260503174646 32 233 16.1 20.9 0.00 0.00 0.00 16 1012.5
20260503174143 32 220 3.2 25.7 0.00 0.00 0.00 17 1012.6
20260503173638 32 200 3.2 24.1 0.00 0.00 0.00 17 1012.5
20260503173130 32 264 9.7 19.3 0.00 0.00 0.00 16 1012.3
20260503172626 31 257 19.3 24.1 0.00 0.00 0.00 18 1012.5
20260503172123 31 253 6.4 11.3 0.00 0.00 0.00 17 1012.5
20260503171620 32 233 16.1 24.1 0.00 0.00 0.00 16 1012.7
20260503171117 31 236 14.5 29.0 0.00 0.00 0.00 16 1012.4
20260503170614 32 207 8.0 12.9 0.00 0.00 0.00 16 1012.6
20260503170110 32 231 12.9 19.3 0.00 0.00 0.00 16 1012.5
20260503151006 28 45 3.2 3.2 0.00 0.00 0.00 18 1012.8
20260503150502 28 39 3.2 6.4 0.00 0.00 0.00 18 1012.9
20260503131349 20 17 3.2 4.8 0.00 0.00 0.00 24 1011.5
20260503130847 20 54 0.0 3.2 0.00 0.00 0.00 24 1011.5
20260503130344 20 271 3.2 4.8 0.00 0.00 0.00 24 1011.4
20260503110733 23 188 0.0 4.8 0.00 0.00 0.00 20 1011.4
20260503110230 23 191 0.0 4.8 0.00 0.00 0.00 21 1011.3
20260503100155 22 222 3.2 3.2 0.00 0.00 0.00 21 1011.4
20260503090114 25 76 0.0 1.6 0.00 0.00 0.00 19 1012.1
20260503081550 23 121 0.0 1.6 0.00 0.00 0.00 21 1012.8
20260503081048 23 236 0.0 3.2 0.00 0.00 0.00 21 1013.0
20260503080544 24 18 0.0 3.2 0.00 0.00 0.00 21 1012.8
20260503072517 25 10 3.2 3.2 0.00 0.00 0.00 22 1013.0
20260503072014 25 119 0.0 3.2 0.00 0.00 0.00 21 1013.2
20260503071511 25 125 0.0 1.6 0.00 0.00 0.00 22 1013.0
20260503071008 25 135 0.0 1.6 0.00 0.00 0.00 22 1013.2
20260503070504 25 125 0.0 3.2 0.00 0.00 0.00 23 1013.3
20260503054922 26 174 0.0 0.0 0.00 0.00 0.00 22 1013.4
20260503054419 26 89 0.0 3.2 0.00 0.00 0.00 22 1013.4
20260503053917 25 65 3.2 3.2 0.00 0.00 0.00 23 1013.5
20260503053414 26 323 1.6 3.2 0.00 0.00 0.00 22 1013.2
20260503052910 26 72 3.2 4.8 0.00 0.00 0.00 22 1013.4
20260503052408 26 284 0.0 0.0 0.00 0.00 0.00 22 1013.4
20260503051904 26 71 1.6 3.2 0.00 0.00 0.00 21 1013.2
20260503051400 26 315 0.0 4.8 0.00 0.00 0.00 22 1013.3
20260503050857 26 27 0.0 4.8 0.00 0.00 0.00 21 1013.3
20260503050353 26 264 1.6 3.2 0.00 0.00 0.00 22 1013.2
20260503045851 27 2 6.4 6.4 0.00 0.00 0.00 22 1013.2
20260503045349 27 294 0.0 3.2 0.00 0.00 0.00 21 1013.2
20260503044845 27 98 6.4 8.0 0.00 0.00 0.00 21 1013.1
20260503044342 28 80 4.8 6.4 0.00 0.00 0.00 19 1013.0
20260503043839 28 89 0.0 3.2 0.00 0.00 0.00 19 1012.9
20260503043336 28 119 3.2 6.4 0.00 0.00 0.00 19 1012.8
20260503042832 28 95 3.2 4.8 0.00 0.00 0.00 19 1012.9
20260503042329 28 138 1.6 3.2 0.00 0.00 0.00 17 1012.8
20260503041825 29 286 0.0 6.4 0.00 0.00 0.00 16 1012.4
20260503041322 29 263 3.2 6.4 0.00 0.00 0.00 16 1012.6
20260503040820 30 250 3.2 4.8 0.00 0.00 0.00 16 1012.8
20260503040317 30 260 8.0 12.9 0.00 0.00 0.00 16 1012.7
20260503035814 29 265 8.0 11.3 0.00 0.00 0.00 17 1012.5
20260503035312 30 250 9.7 11.3 0.00 0.00 0.00 17 1012.6
20260503034809 29 247 8.0 9.7 0.00 0.00 0.00 17 1012.6
20260503034305 30 245 6.4 14.5 0.00 0.00 0.00 17 1012.5
20260503033803 29 274 4.8 4.8 0.00 0.00 0.00 18 1012.2
20260503033300 29 108 0.0 3.2 0.00 0.00 0.00 19 1012.3
20260503032758 30 78 0.0 3.2 0.00 0.00 0.00 20 1012.2
20260503032257 30 289 6.4 8.0 0.00 0.00 0.00 19 1012.2
20260503031753 30 245 8.0 11.3 0.00 0.00 0.00 19 1012.2
20260503031252 30 258 6.4 14.5 0.00 0.00 0.00 20 1012.1
20260503030747 30 252 12.9 16.1 0.00 0.00 0.00 20 1011.8
20260503030244 30 258 11.3 17.7 0.00 0.00 0.00 19 1011.8
20260503025741 30 233 9.7 20.9 0.00 0.00 0.00 19 1012.0
20260503025239 30 233 12.9 20.9 0.00 0.00 0.00 20 1011.8
20260503024735 30 240 12.9 16.1 0.00 0.00 0.00 20 1011.8
20260503024232 30 261 8.0 14.5 0.00 0.00 0.00 20 1011.4
20260503023729 31 257 8.0 19.3 0.00 0.00 0.00 21 1011.6
20260503023226 31 313 4.8 14.5 0.00 0.00 0.00 21 1011.4
20260503022722 31 256 8.0 19.3 0.00 0.00 0.00 20 1011.3
20260503022222 31 245 8.0 9.7 0.00 0.00 0.00 20 1011.3
20260503021719 31 196 0.0 3.2 0.00 0.00 0.00 17 1011.4
20260503021215 31 330 1.6 3.2 0.00 0.00 0.00 14 1011.4
20260503020713 31 317 1.6 3.2 0.00 0.00 0.00 15 1011.4
20260503020210 32 48 0.0 3.2 0.00 0.00 0.00 14 1011.2
20260503015707 32 68 0.0 3.2 0.00 0.00 0.00 14 1011.3
20260503015204 32 83 1.6 3.2 0.00 0.00 0.00 14 1011.2
20260503014700 32 94 3.2 4.8 0.00 0.00 0.00 13 1011.1
20260503014158 32 85 3.2 4.8 0.00 0.00 0.00 13 1011.2
20260503013655 32 109 3.2 8.0 0.00 0.00 0.00 13 1011.1
20260503013153 32 99 3.2 4.8 0.00 0.00 0.00 13 1010.9
20260503012649 32 94 3.2 6.4 0.00 0.00 0.00 13 1011.0
20260503012146 33 101 3.2 9.7 0.00 0.00 0.00 13 1011.1
20260503011643 33 97 3.2 6.4 0.00 0.00 0.00 13 1011.2
20260503011140 34 108 6.4 14.5 0.00 0.00 0.00 12 1011.0
20260503010636 34 85 3.2 8.0 0.00 0.00 0.00 12 1011.1
20260503010134 33 94 4.8 9.7 0.00 0.00 0.00 12 1011.1
20260503005631 34 107 4.8 12.9 0.00 0.00 0.00 12 1011.0
20260503005128 34 86 6.4 14.5 0.00 0.00 0.00 12 1011.0
20260503004624 34 93 4.8 9.7 0.00 0.00 0.00 12 1011.1
20260503004123 35 96 8.0 8.0 0.00 0.00 0.00 12 1011.0
20260503003619 35 80 4.8 4.8 0.00 0.00 0.00 12 1011.0
20260503003116 34 116 8.0 12.9 0.00 0.00 0.00 12 1011.2
20260503002613 34 104 6.4 9.7 0.00 0.00 0.00 12 1011.2
20260503002110 35 113 6.4 11.3 0.00 0.00 0.00 12 1011.1
20260503001606 34 106 9.7 20.9 0.00 0.00 0.00 12 1011.2
20260503001103 35 82 3.2 9.7 0.00 0.00 0.00 12 1011.0
20260503000600 35 78 6.4 16.1 0.00 0.00 0.00 12 1011.1
20260503000057 34 71 6.4 17.7 0.00 0.00 0.00 12 1011.3
20260502235554 35 87 11.3 17.7 0.00 0.00 0.00 12 1011.2
20260502235052 35 47 4.8 9.7 0.00 0.00 0.00 12 1011.2
20260502234548 35 61 3.2 8.0 0.00 0.00 0.00 12 1011.3
20260502234046 35 89 9.7 20.9 0.00 0.00 0.00 12 1011.2
20260502233546 36 192 6.4 6.4 0.00 0.00 0.00 11 1011.2
20260502233043 35 134 3.2 12.9 0.00 0.00 0.00 11 1011.3
20260502232534 36 192 3.2 6.4 0.00 0.00 0.00 11 1011.5
20260502232032 36 134 4.8 6.4 0.00 0.00 0.00 11 1011.5
20260502231528 36 80 3.2 6.4 0.00 0.00 0.00 11 1011.5
20260502231026 35 97 4.8 9.7 0.00 0.00 0.00 11 1011.5
20260502230524 35 94 6.4 9.7 0.00 0.00 0.00 11 1011.5
20260502230022 35 106 14.5 17.7 0.00 0.00 0.00 11 1011.6
20260502225522 35 59 4.8 8.0 0.00 0.00 0.00 12 1012.0
20260502225020 36 99 6.4 8.0 0.00 0.00 0.00 11 1012.0
20260502224516 36 47 3.2 8.0 0.00 0.00 0.00 11 1012.1
20260502224013 35 119 4.8 6.4 0.00 0.00 0.00 11 1012.3
20260502223511 35 33 1.6 3.2 0.00 0.00 0.00 11 1012.3
20260502223009 35 93 12.9 14.5 0.00 0.00 0.00 11 1012.2
20260502222506 36 122 9.7 14.5 0.00 0.00 0.00 11 1012.5
20260502222002 36 104 8.0 8.0 0.00 0.00 0.00 11 1012.6
20260502221458 36 257 3.2 11.3 0.00 0.00 0.00 11 1012.7
20260502220955 35 139 3.2 16.1 0.00 0.00 0.00 11 1012.9
20260502220451 36 104 0.0 9.7 0.00 0.00 0.00 11 1012.7
20260502215948 35 188 3.2 8.0 0.00 0.00 0.00 11 1013.0
20260502215445 35 114 6.4 20.9 0.00 0.00 0.00 11 1013.2
20260502214942 35 93 3.2 8.0 0.00 0.00 0.00 11 1013.2
20260502214439 35 101 6.4 8.0 0.00 0.00 0.00 11 1013.4
20260502213936 35 142 3.2 9.7 0.00 0.00 0.00 11 1013.5
20260502213432 35 103 8.0 20.9 0.00 0.00 0.00 11 1013.4
20260502212931 35 127 1.6 12.9 0.00 0.00 0.00 11 1013.2
20260502212430 35 106 14.5 22.5 0.00 0.00 0.00 11 1013.3
20260502211927 35 96 6.4 16.1 0.00 0.00 0.00 11 1013.4
20260502211422 35 174 3.2 8.0 0.00 0.00 0.00 11 1013.5
20260502210920 35 213 4.8 8.0 0.00 0.00 0.00 11 1013.7
20260502210417 35 119 6.4 6.4 0.00 0.00 0.00 11 1013.7
20260502205914 35 112 3.2 14.5 0.00 0.00 0.00 11 1013.8
20260502205410 35 98 3.2 17.7 0.00 0.00 0.00 11 1013.9
20260502204907 35 252 1.6 8.0 0.00 0.00 0.00 11 1013.7
20260502204404 35 66 6.4 14.5 0.00 0.00 0.00 11 1013.9
20260502203902 35 81 9.7 9.7 0.00 0.00 0.00 10 1013.9
20260502203359 35 92 4.8 9.7 0.00 0.00 0.00 10 1013.9
20260502202854 35 88 8.0 22.5 0.00 0.00 0.00 10 1014.0
20260502202352 35 102 4.8 9.7 0.00 0.00 0.00 11 1014.2
20260502201850 35 108 6.4 9.7 0.00 0.00 0.00 11 1014.3
20260502201346 35 102 9.7 20.9 0.00 0.00 0.00 11 1014.2
20260502200842 35 154 4.8 12.9 0.00 0.00 0.00 10 1014.3
20260502200338 34 99 6.4 14.5 0.00 0.00 0.00 11 1014.2
20260502195836 35 344 0.0 6.4 0.00 0.00 0.00 12 1014.4
20260502195333 35 85 6.4 11.3 0.00 0.00 0.00 10 1014.3